GFSGBSN_con_lsi_234.txt.gz
Lid_Strength_Index
1 1 1 2 2 2 2 2 3 3 3 3 3 3 3 3 3 3 3 3 3 3 3 3 2 1 4 7 7 3 -4 -3 1 4 5 6 8 10 10 10 9 10 9 8 8 8 8
1 1 1 1 2 2 2 3 3 3 3 3 3 3 3 3 3 3 3 3 3 3 3 2 2 1 4 8 3 2 2 3 3 5 5 7 8 7 9 9 11 8 9 8 9 9 8
1 1 1 1 2 2 2 2 2 3 3 3 3 3 3 3 3 3 3 3 3 3 3 2 1 2 5 7 3 4 2 4 4 4 6 5 6 7 8 9 8 8 11 10 9 8 9
1 1 2 1 2 2 2 2 3 3 3 3 3 4 3 3 3 3 3 3 3 3 2 1 1 3 8 3 3 5 4 4 4 4 5 5 5 7 9 8 8 10 11 14 10 8 8
1 1 2 2 2 2 2 3 3 3 3 3 3 4 4 3 3 3 3 4 3 2 1 1 4 6 8 2 5 4 4 5 4 4 4 3 6 8 7 10 12 12 14 13 11 8 8
1 1 1 2 2 2 2 3 3 3 3 3 3 4 4 4 3 3 4 4 2 3 1 2 2 7 5 5 4 4 4 4 4 5 6 7 9 10 11 12 15 14 13 12 12 10 9
1 1 1 1 1 2 2 3 3 3 3 3 3 4 4 4 4 4 5 5 6 6 5 7 7 6 4 2 3 5 4 5 5 6 9 7 11 13 11 10 10 11 12 12 10 9 10
1 1 1 1 1 2 2 3 3 3 3 3 3 3 4 4 4 4 6 6 4 6 9 4 4 5 3 2 5 4 4 7 7 9 8 10 11 9 8 9 9 10 12 13 10 9 10
2 2 2 2 2 2 2 2 3 3 3 3 4 4 4 4 4 5 6 4 2 4 8 6 5 5 5 5 6 5 5 7 8 10 10 11 9 7 8 10 10 10 11 11 12 10 11
3 3 2 3 3 3 3 3 3 3 3 3 4 4 4 5 5 6 6 4 4 5 11 8 7 5 6 6 6 4 4 6 8 10 9 11 8 8 9 8 9 12 10 10 11 13 16
2 3 3 4 4 4 3 4 4 4 4 4 4 4 4 4 8 7 4 3 4 5 16 7 7 5 6 7 7 6 4 6 9 9 9 11 10 9 10 9 9 11 9 11 11 14 14
2 2 2 2 3 3 4 5 4 4 4 5 5 5 5 6 7 5 4 5 6 11 16 8 7 8 9 7 6 6 5 6 6 9 9 10 8 8 9 8 9 8 10 10 11 14 17
1 1 1 1 1 2 3 4 5 5 5 5 5 5 6 6 8 6 5 6 12 15 7 9 9 9 9 8 7 7 7 9 11 13 12 10 10 9 9 11 10 11 13 17 17 18 17
1 1 1 1 1 1 2 2 4 5 6 6 7 7 7 6 7 7 5 9 15 10 10 7 7 9 10 9 9 8 9 11 9 10 12 14 14 10 9 11 12 11 12 17 20 20 16
1 1 1 1 1 1 1 2 3 3 5 7 7 10 9 7 6 6 7 13 12 10 8 8 8 10 11 9 9 9 10 10 9 9 12 13 12 9 9 9 10 11 13 11 15 15 17
2 2 2 2 2 2 2 2 3 3 4 5 9 10 8 6 5 6 10 12 10 6 6 7 10 9 11 10 10 11 10 8 8 8 8 10 13 9 9 10 10 10 9 14 15 20 21
2 2 2 2 2 2 2 2 3 3 5 5 9 9 6 4 4 8 12 11 8 5 6 7 9 10 9 10 9 11 10 8 7 9 9 10 12 11 10 12 13 12 13 12 13 15 19
3 2 2 2 2 2 2 2 3 4 5 8 10 11 6 5 8 9 11 8 7 7 6 7 7 9 9 9 10 10 10 8 7 8 11 10 12 14 11 9 8 11 11 12 16 16 16
3 3 3 3 3 2 2 3 3 4 5 10 12 10 7 6 11 11 8 8 7 7 7 8 8 8 8 10 12 9 8 7 7 8 9 10 13 16 15 13 9 11 10 12 12 13 16
4 3 3 3 3 2 2 3 3 4 4 9 11 11 9 8 9 12 11 10 10 6 7 7 8 8 9 10 10 10 9 7 7 7 6 7 12 14 17 13 11 12 11 10 12 15 15
4 4 3 3 3 2 3 3 3 4 4 8 9 9 10 14 11 12 11 9 9 9 7 7 9 9 10 12 11 11 9 9 7 7 8 11 13 12 11 10 10 10 10 10 12 12 14
4 4 4 3 3 2 2 3 3 4 4 8 9 10 9 10 10 11 10 11 9 9 8 9 10 9 8 11 10 10 9 10 10 9 10 10 12 12 12 10 10 11 10 10 10 10 11
4 4 4 4 3 3 2 2 3 3 5 10 9 8 9 10 10 11 9 10 10 9 7 7 8 9 9 8 7 8 8 8 9 10 11 11 11 13 15 11 11 14 11 10 9 10 10
4 4 4 4 3 3 3 2 3 3 5 9 9 10 11 11 10 10 8 9 10 10 11 8 7 8 6 5 6 7 8 8 9 10 9 11 11 12 15 13 19 11 7 8 10 10 9
4 4 4 3 3 3 2 3 2 2 3 8 8 10 12 13 9 9 8 9 9 9 10 8 6 5 5 6 10 11 12 10 9 9 9 10 11 14 15 16 13 10 9 10 11 12 8
4 4 4 3 3 3 3 3 3 2 3 7 8 7 10 12 11 7 9 9 11 11 10 8 6 5 5 9 11 15 17 13 13 11 8 8 10 12 14 17 19 12 9 7 8 15 8
4 4 4 4 4 4 3 3 3 2 2 7 8 8 10 12 9 8 10 10 9 10 11 9 8 7 6 10 13 15 15 10 15 14 13 12 12 14 14 16 13 9 8 6 15 14 8
3 4 4 4 4 4 3 3 3 3 3 6 8 7 10 11 9 8 7 9 9 10 12 9 9 9 9 12 12 12 13 11 12 10 11 13 14 15 14 16 17 7 8 11 9 8 8
3 3 3 3 3 3 3 3 4 4 3 4 10 7 6 8 9 6 6 6 6 6 9 9 9 9 8 11 11 10 11 11 11 14 9 13 11 13 12 13 8 7 8 7 7 8 7

GFSGBSN_con_lsi_237.txt.gz
Lid_Strength_Index
1 1 1 1 2 2 2 3 3 3 3 3 3 3 3 3 3 3 3 3 3 3 3 3 2 2 4 8 7 5 -4 -3 2 4 6 7 9 10 11 11 10 11 10 9 9 9 9
1 2 2 2 2 2 2 2 2 3 3 3 3 3 3 3 3 3 3 3 3 3 3 3 2 2 5 10 4 4 3 4 4 6 6 7 9 8 10 10 11 9 9 9 9 9 8
1 1 2 2 2 2 2 2 2 2 3 3 3 3 3 3 3 3 3 3 4 3 3 2 1 2 6 8 4 4 4 6 5 4 7 7 7 8 8 9 8 9 10 10 10 9 9
1 1 1 2 2 2 2 2 2 3 3 3 3 3 3 3 3 3 3 3 3 3 2 1 1 4 9 4 4 5 4 4 4 4 5 5 6 8 9 9 9 11 12 13 11 9 9
1 1 1 2 2 2 2 2 2 3 2 2 3 3 3 3 3 3 3 4 3 2 1 1 5 7 9 3 4 4 4 5 5 5 5 4 7 9 8 11 12 12 14 13 11 9 9
1 1 1 1 1 2 2 2 3 3 3 3 3 3 3 3 3 3 4 4 2 2 2 2 3 7 6 6 5 5 5 5 5 6 6 7 9 10 11 12 15 14 14 14 13 11 10
2 2 1 1 1 2 2 2 3 3 3 3 3 3 4 4 4 4 5 6 7 8 6 8 8 6 5 3 4 6 5 6 6 7 10 8 10 13 12 11 11 12 13 13 11 10 11
2 2 2 2 2 2 2 2 2 2 3 3 3 3 3 4 4 4 6 7 5 6 8 6 5 6 4 3 5 5 5 8 8 10 9 11 12 9 9 9 10 11 13 13 11 10 11
3 3 2 2 3 3 3 3 3 3 3 3 3 3 4 4 4 6 7 6 5 6 9 7 6 6 5 4 6 5 6 8 9 10 11 12 10 8 9 10 10 11 12 12 12 11 11
3 3 3 4 4 4 3 3 3 3 4 4 4 4 4 4 6 7 7 5 5 6 12 10 7 6 5 6 7 4 5 7 9 11 10 12 9 9 10 9 10 13 10 10 12 13 15
2 2 2 3 3 4 4 4 4 4 4 4 4 4 4 4 8 8 5 5 5 6 18 8 7 5 7 7 7 7 5 7 10 10 10 11 10 10 10 10 10 11 10 11 11 14 15
1 1 1 2 2 2 2 3 3 4 5 5 5 5 5 7 9 7 6 6 6 11 16 8 7 9 9 8 7 7 6 7 7 10 10 10 9 9 10 9 10 10 10 11 12 14 16
1 1 1 1 1 2 2 2 2 3 4 5 6 6 7 7 10 8 7 7 12 15 8 9 9 10 10 10 8 8 9 10 12 14 13 10 10 10 9 12 10 11 13 17 17 18 18
1 1 2 2 2 2 2 2 3 3 3 4 4 6 8 8 8 8 7 10 16 10 10 7 8 10 11 10 10 9 10 11 10 11 13 14 14 11 9 11 12 13 14 17 20 20 17
2 2 3 2 2 3 3 3 3 3 4 5 5 9 9 8 7 8 8 14 14 10 8 9 9 11 12 10 10 10 10 10 10 10 13 13 12 10 9 10 10 12 13 12 15 15 17
2 2 2 3 3 3 3 2 3 3 4 5 9 9 8 5 6 8 11 13 10 7 7 7 11 10 12 11 12 12 11 9 8 9 9 10 14 10 10 10 11 10 9 14 15 20 21
3 3 3 3 3 3 3 3 3 4 5 6 10 10 6 5 5 8 13 12 8 6 6 9 10 11 10 11 10 12 10 9 7 9 10 11 13 12 11 12 13 13 14 13 13 15 19
3 3 3 3 3 3 3 3 3 4 5 9 11 11 6 5 8 9 11 9 7 7 6 7 8 9 10 10 11 11 10 9 7 9 11 11 13 15 12 11 10 12 13 12 16 16 17
4 4 3 3 3 3 3 3 4 4 5 11 12 12 7 6 12 12 10 8 7 7 7 8 9 8 8 10 12 10 9 7 8 9 10 10 15 17 15 14 11 12 12 12 13 14 16
3 4 4 3 3 3 3 3 4 4 5 10 11 12 10 10 11 13 12 11 10 6 7 7 8 8 9 11 10 11 10 8 8 7 6 8 14 15 16 15 12 13 11 11 13 16 15
4 4 4 4 3 3 3 3 4 4 4 9 10 10 10 13 11 10 12 10 10 10 7 7 9 9 10 12 11 12 10 10 8 6 10 11 14 13 13 11 10 11 11 11 13 13 15
4 4 4 4 4 3 3 3 3 4 5 9 11 11 10 11 10 12 12 11 10 9 10 10 9 9 9 11 11 11 11 12 11 10 12 12 14 13 13 10 11 12 10 10 11 11 12
4 5 4 4 4 3 3 3 3 4 6 10 10 10 10 11 12 12 11 11 10 9 9 8 8 9 10 9 7 8 9 9 10 10 12 11 12 13 15 11 12 15 12 10 11 11 11
5 4 4 4 4 4 3 3 3 3 6 10 10 11 12 13 11 11 9 9 9 9 11 9 8 9 7 5 5 7 8 9 9 10 9 12 12 12 15 13 19 12 8 9 11 10 9
4 4 4 4 4 4 3 3 3 3 4 9 10 10 11 14 11 10 9 9 9 9 9 8 7 6 4 7 10 12 12 11 10 10 11 11 12 14 16 16 13 11 10 10 11 12 9
5 5 5 5 4 4 4 4 3 3 3 9 10 8 9 11 12 8 10 10 12 12 10 8 6 6 5 9 11 15 17 14 14 11 9 10 11 14 16 17 18 12 8 7 8 15 8
5 5 5 5 5 4 4 3 4 3 3 7 9 9 11 11 9 9 11 11 10 11 12 10 9 9 7 11 14 15 15 11 16 15 13 13 12 14 15 16 14 9 7 6 15 13 8
5 4 4 4 4 4 4 4 4 4 3 7 9 9 11 13 11 8 7 10 10 11 12 11 10 10 10 13 13 13 14 12 13 11 13 14 15 15 14 16 17 7 8 11 9 8 8
4 4 4 3 4 4 4 4 4 4 4 5 11 8 6 10 11 8 7 6 6 8 10 11 10 11 8 11 10 10 12 12 12 15 9 14 11 13 13 13 10 7 8 7 7 7 8

GFSGBSN_con_lsi_240.txt.gz
Lid_Strength_Index
1 2 2 2 2 2 2 2 2 2 3 2 2 2 2 2 2 3 3 3 3 3 3 3 2 2 5 9 7 6 -2 -2 3 5 7 8 9 11 10 11 11 12 10 11 9 10 9
1 1 1 2 2 2 2 2 2 2 2 2 3 2 3 3 3 3 3 3 3 3 3 3 2 1 6 10 5 4 4 4 5 7 6 8 8 9 10 11 11 10 10 10 10 9 8
1 1 1 1 2 2 2 2 2 2 3 3 3 3 3 3 3 3 3 3 3 3 3 2 1 2 7 8 5 4 5 7 6 5 7 7 7 8 9 10 10 10 11 10 10 9 10
1 1 1 1 2 2 2 2 2 2 2 2 3 3 3 3 3 3 3 3 3 3 2 1 1 5 10 6 5 6 5 6 5 5 6 6 7 8 10 9 9 11 12 13 11 9 9
1 1 2 1 2 2 2 2 2 2 2 3 3 3 3 3 3 3 3 3 3 2 1 1 5 8 10 3 5 4 5 6 6 6 6 5 7 9 9 11 12 12 13 14 11 10 9
2 2 2 1 1 2 2 2 2 2 2 2 3 3 3 3 3 4 4 3 1 2 2 2 3 8 7 6 6 5 5 5 6 7 7 8 9 11 12 12 15 14 15 14 14 12 11
2 2 2 2 2 2 2 2 2 2 2 2 3 3 3 3 3 4 5 7 7 8 7 8 9 8 6 4 4 7 6 6 7 8 11 9 11 13 12 11 11 12 13 14 12 11 12
2 3 2 2 2 2 2 3 3 3 3 3 3 3 3 3 4 4 7 7 6 7 10 6 6 7 5 4 6 5 6 8 9 11 10 12 13 10 9 10 11 12 13 13 12 11 11
3 4 3 3 3 3 3 3 3 3 3 3 4 3 3 4 4 7 8 6 5 7 10 8 6 6 6 5 7 6 7 8 10 11 12 13 11 8 9 11 11 12 13 13 13 12 12
4 4 3 3 4 4 4 4 4 4 4 4 4 4 4 5 7 9 8 5 6 7 13 10 8 6 6 6 7 4 6 8 10 11 11 12 10 9 11 11 11 14 11 11 12 14 15
2 3 3 3 3 4 4 4 4 5 5 5 5 5 5 5 9 10 7 7 6 7 17 9 8 6 7 7 8 7 6 8 11 10 11 12 11 11 11 11 10 12 11 12 12 15 15
1 2 2 2 2 2 3 3 3 4 4 5 5 5 6 8 10 9 8 7 7 13 17 9 8 9 9 8 8 7 7 7 8 11 11 11 10 10 10 10 10 10 11 12 13 15 17
2 2 3 3 2 3 3 3 3 3 4 3 4 5 6 7 11 9 9 8 13 16 10 10 10 10 11 10 9 8 9 11 12 14 14 11 11 10 9 12 11 12 14 19 19 18 18
2 3 3 3 3 3 3 3 3 4 4 4 5 5 7 6 8 8 9 11 17 12 10 7 8 10 11 11 10 10 10 12 11 12 14 14 14 11 10 11 13 14 14 17 21 21 19
2 3 3 3 3 3 3 3 3 4 4 5 6 10 9 7 7 8 9 15 15 11 8 9 9 12 13 11 11 11 11 11 10 11 13 14 13 11 10 11 10 13 15 13 16 16 18
2 3 3 3 3 3 3 3 3 4 4 5 10 11 8 6 6 7 10 13 12 8 7 8 12 10 13 11 12 12 12 9 9 9 10 11 15 11 11 11 11 11 10 15 15 20 21
3 3 4 3 3 3 3 3 3 4 5 6 11 10 6 5 6 8 13 11 8 6 6 9 10 11 11 11 11 13 11 10 8 10 10 11 13 13 12 13 13 12 14 13 13 16 20
3 4 4 3 3 3 3 3 3 4 5 9 11 13 7 5 8 10 11 9 7 7 5 7 8 9 10 10 11 11 11 10 8 9 11 11 14 15 14 12 11 12 13 12 16 16 18
3 3 4 4 3 3 3 3 3 4 5 11 12 12 7 7 12 13 10 8 7 7 8 8 9 8 8 10 12 11 10 8 9 10 10 11 15 17 15 14 12 13 12 12 13 14 17
3 4 4 4 3 3 3 3 3 4 5 10 12 12 10 9 11 13 13 11 10 7 7 7 8 8 9 11 10 11 11 9 9 8 6 8 14 14 16 15 13 13 12 12 13 16 16
4 4 4 4 4 3 4 3 3 4 5 10 11 12 11 13 12 13 12 10 10 11 9 8 9 9 10 12 11 12 10 10 8 6 10 11 14 13 13 11 11 12 12 12 13 13 15
4 4 4 4 4 4 3 3 3 4 5 10 12 12 11 12 11 12 12 12 11 10 10 10 10 10 9 12 11 12 10 11 11 10 12 12 14 13 13 11 11 12 11 11 11 12 12
4 4 4 4 4 4 4 3 4 4 7 11 11 11 11 12 12 13 13 11 10 10 9 9 9 10 10 9 7 8 8 9 10 11 12 12 13 14 15 11 12 14 12 12 11 11 11
4 4 4 4 4 4 4 4 5 4 7 11 11 12 12 14 12 12 10 10 10 10 11 9 9 10 7 5 5 7 7 8 9 10 11 13 13 13 15 13 18 12 9 9 11 10 10
4 4 4 4 4 4 4 4 4 4 5 10 11 11 13 14 12 11 10 10 10 10 11 9 8 7 5 7 10 12 12 11 10 9 10 10 11 14 16 16 13 12 10 10 11 12 9
4 4 5 5 4 4 4 4 4 4 4 9 11 9 10 13 13 9 10 10 12 13 11 9 7 8 6 9 11 15 17 14 14 12 8 9 11 12 16 17 18 13 9 7 9 15 8
4 4 4 4 4 5 5 5 4 4 4 7 10 10 10 12 11 10 12 12 10 12 13 11 10 10 8 11 14 14 15 11 16 15 14 13 13 14 16 16 14 11 8 7 15 13 8
4 4 4 4 4 5 5 4 4 4 4 6 10 10 11 14 12 9 8 10 11 11 13 11 11 10 10 13 13 13 13 12 13 12 13 14 15 15 14 17 18 8 8 11 10 9 8
4 5 5 4 4 4 3 3 3 3 3 5 10 9 7 11 12 9 8 8 8 8 10 11 11 11 10 11 11 11 13 12 13 16 10 14 12 13 12 13 9 7 9 8 8 8 8

GFSGBSN_con_lsi_246.txt.gz
Lid_Strength_Index
1 1 1 1 1 2 2 2 2 2 2 2 2 2 2 2 2 2 2 2 2 3 3 3 2 1 1 3 3 -1 -3 -2 1 2 3 3 4 4 5 5 4 5 5 4 4 4 4
1 1 1 1 1 2 2 2 2 2 2 2 2 2 2 2 2 3 3 3 3 3 3 2 2 2 2 5 1 -1 0 1 2 2 3 2 3 3 4 5 5 4 5 5 4 4 4
1 1 2 1 1 2 2 2 2 2 2 2 2 3 3 3 3 3 3 3 3 3 2 2 1 1 4 4 1 -1 1 2 2 2 3 2 2 3 3 5 4 4 6 5 4 4 5
1 1 2 1 1 2 2 2 2 2 2 2 3 3 3 3 3 3 3 3 2 3 2 1 1 2 5 2 1 1 1 2 1 1 2 2 2 3 3 3 4 5 5 7 5 4 4
1 2 2 2 2 2 2 2 3 3 3 3 3 3 3 3 3 3 3 3 2 2 0 0 1 2 5 2 2 1 1 3 2 2 2 3 3 4 4 5 7 6 8 8 7 4 5
2 2 2 2 2 2 2 3 3 3 3 3 3 3 3 3 3 3 4 3 1 1 1 1 1 4 4 4 2 2 1 2 3 3 4 4 4 5 5 6 10 8 8 7 8 6 5
2 2 2 2 2 3 3 3 3 3 3 3 3 4 4 3 3 4 3 1 2 3 2 3 4 5 4 2 1 3 2 3 3 4 6 4 6 7 6 6 6 7 7 8 7 5 6
3 3 3 3 4 4 3 4 4 4 3 3 4 4 4 4 4 4 3 2 4 3 5 3 3 3 2 2 4 3 2 5 5 6 5 6 7 6 5 6 6 6 8 8 7 6 6
4 4 4 4 5 5 4 4 5 5 4 4 5 4 4 4 5 3 3 4 3 3 5 4 3 4 3 2 4 4 3 4 6 6 6 7 6 5 6 6 7 7 8 8 8 7 6
4 4 4 5 5 5 5 5 5 5 5 5 5 5 5 6 5 4 3 3 3 2 7 6 6 4 3 3 5 2 2 4 5 7 6 6 5 6 6 7 6 8 6 7 7 8 10
2 3 3 4 5 5 5 5 5 5 5 5 5 5 5 6 4 5 4 3 3 3 12 7 5 2 3 4 4 4 2 4 6 6 6 7 7 7 7 7 6 8 6 7 7 8 8
2 2 3 4 4 4 4 4 4 4 4 5 5 5 6 4 4 4 4 3 3 8 13 7 5 5 5 5 5 4 4 3 4 6 6 6 5 6 6 6 6 5 6 7 7 8 11
2 3 3 3 3 4 3 3 3 4 4 4 4 4 5 3 3 2 3 3 9 12 8 8 7 6 6 6 6 5 6 6 7 9 8 7 7 6 6 7 6 6 7 11 12 12 12
3 3 3 3 3 4 3 4 4 4 4 4 5 5 4 3 2 2 2 5 11 9 9 6 6 6 7 6 6 6 6 7 5 6 7 9 10 7 6 6 7 7 7 11 19 12 11
3 3 3 4 4 4 4 4 4 4 4 4 5 2 2 1 1 2 4 9 8 8 7 7 7 8 8 7 7 6 7 7 6 5 9 9 9 6 6 6 5 7 9 7 10 10 12
3 3 4 4 4 4 4 3 3 3 4 4 4 4 1 1 0 2 5 9 7 6 6 6 8 8 9 8 8 7 7 6 6 5 4 7 10 7 7 5 6 6 6 10 9 16 15
4 4 4 4 4 4 4 3 3 3 4 5 3 5 2 0 1 4 8 7 6 5 5 7 8 9 8 9 8 8 8 6 5 5 4 6 7 8 7 7 8 8 8 8 9 10 14
4 4 4 4 4 4 4 3 3 3 5 4 4 7 1 -0 6 4 7 6 7 6 5 6 6 6 7 7 8 8 8 7 5 5 7 5 7 10 8 6 6 6 7 7 11 12 11
5 4 4 4 4 4 4 4 3 4 4 4 6 5 0 1 8 7 6 6 6 6 6 6 7 6 6 7 9 7 7 6 6 6 7 6 8 11 10 8 6 7 7 7 7 8 11
5 5 5 5 4 4 4 4 4 4 4 4 5 7 4 3 3 7 8 7 7 5 6 6 6 6 7 7 6 8 7 6 6 6 5 5 8 9 13 9 7 9 8 7 8 11 11
6 5 5 5 4 4 4 4 4 4 4 4 5 6 5 7 6 6 6 7 8 8 6 5 7 7 8 9 8 8 7 7 6 5 6 7 10 8 8 7 7 8 8 8 9 8 10
5 5 5 5 4 4 4 4 4 4 5 4 6 6 5 6 6 7 8 8 8 8 7 7 8 7 7 9 8 9 8 8 8 7 7 7 12 10 11 8 8 8 8 7 8 7 8
4 5 4 4 4 4 4 3 4 4 4 4 3 4 5 8 8 7 7 7 8 7 6 6 6 7 8 7 6 5 5 5 6 8 9 8 9 12 15 10 9 11 8 8 7 7 7
4 4 5 5 4 4 4 4 4 4 5 4 4 4 6 9 8 8 8 7 8 7 7 6 5 7 5 4 4 4 5 5 6 6 6 9 10 9 12 10 16 9 6 6 8 7 6
4 4 5 5 4 4 4 4 4 4 5 4 4 4 6 9 7 8 8 8 7 6 7 6 5 4 3 4 8 9 9 9 8 7 7 6 9 11 13 13 10 10 8 8 9 8 6
3 3 4 4 4 4 4 4 4 3 5 4 5 4 5 8 9 8 8 8 8 8 7 6 4 3 4 6 8 12 13 11 12 10 6 7 7 11 11 16 17 9 6 5 5 10 6
3 3 3 3 4 4 4 4 4 4 5 4 4 4 5 8 6 6 7 7 6 7 7 6 5 5 4 8 10 11 11 9 12 12 12 12 11 13 12 14 11 7 6 5 12 10 5
3 4 4 3 3 3 4 4 4 4 4 4 5 4 6 7 7 7 6 7 6 7 8 6 6 6 6 9 9 9 10 9 10 9 10 11 13 14 13 16 17 6 7 10 7 5 4
3 3 3 3 4 3 4 4 4 4 4 5 5 3 4 7 7 6 6 5 5 5 5 5 6 7 6 9 7 8 9 8 9 12 7 12 9 12 11 12 7 6 6 5 5 5 4